{"data":{"norad_id":65062,"epoch":"2026-05-25T05:00:17.640864Z","epoch_age_seconds":67070,"freshness":"FRESH","line1":"1 65062U 25165G   26145.20853751  .00007070  00000+0  49345-3 0  9998","line2":"2 65062  97.4473 222.2719 0002908 129.7176 230.4307 15.05657168 46308","mean_motion":15.05657168,"eccentricity":0.0002908,"inclination_deg":97.4473,"raan_deg":222.2719,"arg_perigee_deg":129.7176,"mean_anomaly_deg":230.4307,"bstar":0.00049345,"rev_number":4630,"period_min":95.639301602289,"perigee_km":547.47461330762,"apogee_km":551.50372068635,"semimajor_km":6927.626166997,"source":"CELESTRAK","updated_at":"2026-05-25T13:38:20.677280Z"}}